CW1631 Weather Reports


Display with metric or nautical units.
time (UTC)temp
F
wind
direction
speed
MPH
gust
MPH
rain 1hr
in
rain 24hr
in
rain mn
in
humidity
%
barometer
mb
20260905043747 60 264 0.0 0.0 0.00 0.00 0.00 97 1013.1
20260905043242 60 268 0.0 0.0 0.00 0.00 0.00 97 1013.3
20260905042737 60 273 0.0 0.0 0.00 0.00 0.00 97 1013.2
20260905042236 61 277 0.0 0.0 0.00 0.00 0.00 97 1013.3
20260905041731 61 252 0.0 0.0 0.00 0.00 0.00 97 1013.4
20260905041227 61 273 0.0 0.0 0.00 0.00 0.00 97 1013.3
20260905040722 61 279 0.0 0.0 0.00 0.00 0.00 97 1013.4
20260905040221 61 213 0.0 0.0 0.00 0.00 0.00 97 1013.3
20260905035720 61 251 0.0 0.0 0.00 0.29 0.29 97 1013.3
20260905035217 61 271 0.0 0.0 0.00 0.29 0.29 96 1013.2
20260905034713 62 245 0.0 0.0 0.00 0.29 0.29 96 1013.2
20260905034212 62 268 0.0 0.0 0.00 0.29 0.29 96 1013.2
20260905033711 62 276 0.0 0.0 0.00 0.29 0.29 96 1013.6
20260905033207 62 268 0.0 0.0 0.00 0.29 0.29 96 1013.5
20260905032706 62 271 0.0 0.0 0.00 0.29 0.29 96 1013.3
20260905032201 62 271 0.0 0.0 0.00 0.29 0.29 96 1013.3
20260905031657 62 267 0.0 0.0 0.00 0.29 0.29 96 1013.0
20260905031152 62 279 0.0 0.0 0.00 0.29 0.29 97 1013.2
20260905030647 62 258 0.0 0.0 0.00 0.29 0.29 97 1013.1
20260905030142 62 286 0.0 0.0 0.00 0.29 0.29 97 1013.2
20260905025637 62 265 0.0 0.0 0.00 0.29 0.29 96 1013.0
20260905025133 62 258 0.0 0.0 0.00 0.29 0.29 96 1013.2
20260905024629 63 254 0.0 0.0 0.00 0.29 0.29 96 1013.2
20260905024125 63 265 0.0 0.0 0.00 0.29 0.29 96 1013.2
20260905023620 63 279 0.0 0.0 0.00 0.29 0.29 96 1013.1
20260905023119 63 273 0.0 0.0 0.00 0.29 0.29 96 1013.1
20260905022613 63 275 0.0 0.0 0.00 0.29 0.29 96 1013.1
20260905022109 63 265 0.0 0.0 0.00 0.29 0.29 95 1013.2
20260905021608 64 270 0.0 0.0 0.00 0.29 0.29 95 1013.1
20260905021104 64 207 0.0 0.0 0.00 0.29 0.29 95 1013.2
20260905020603 64 272 0.0 0.0 0.00 0.29 0.29 95 1013.2
20260905020059 64 262 0.0 0.0 0.00 0.29 0.29 95 1013.4
20260905015557 65 257 0.0 0.0 0.00 0.29 0.29 95 1013.5
20260905015052 65 256 0.0 0.0 0.00 0.29 0.29 95 1013.7
20260905014546 65 260 0.0 0.0 0.00 0.29 0.29 95 1013.6
20260905014041 65 244 0.0 0.0 0.00 0.29 0.29 96 1013.4
20260905013532 65 270 0.0 0.0 0.00 0.29 0.29 96 1013.4
20260905013028 65 278 0.0 0.0 0.00 0.29 0.29 96 1013.3
20260905012527 65 277 0.0 0.0 0.00 0.29 0.29 96 1013.5
20260905012024 65 286 0.0 0.0 0.00 0.29 0.29 95 1013.6
20260905011520 65 317 0.0 0.0 0.00 0.29 0.29 95 1013.3
20260905011015 65 330 0.0 0.0 0.00 0.29 0.29 95 1013.3
20260905010515 65 257 0.0 0.0 0.00 0.29 0.29 95 1013.4
20260905010011 65 272 0.0 0.0 0.00 0.29 0.29 95 1013.2
20260905005507 65 256 0.0 0.0 0.00 0.29 0.29 94 1013.3
20260905004956 65 245 0.0 0.0 0.00 0.29 0.29 94 1013.4
20260905004451 65 247 0.0 0.0 0.00 0.29 0.29 94 1013.2
20260905003946 65 267 0.0 0.0 0.00 0.29 0.29 94 1013.1
20260905003442 65 267 0.0 0.0 0.00 0.29 0.29 94 1013.4
20260905002937 65 283 0.0 0.0 0.00 0.29 0.29 94 1013.2
20260905002432 65 304 0.0 0.0 0.00 0.29 0.29 94 1013.1
20260905001931 65 299 0.0 0.0 0.00 0.29 0.29 94 1013.0
20260905001427 66 255 0.0 0.0 0.00 0.29 0.29 93 1013.0
20260905000921 66 243 0.0 0.0 0.00 0.29 0.29 93 1013.2
20260905000417 66 280 0.0 0.0 0.00 0.29 0.29 93 1012.9
20260904235912 66 271 0.0 0.0 0.00 0.29 0.29 92 1012.9
20260904235408 66 273 0.0 0.0 0.00 0.29 0.29 91 1013.0
20260904234902 67 293 0.0 0.0 0.00 0.29 0.29 90 1012.9
20260904234356 67 278 0.0 0.0 0.00 0.29 0.29 88 1012.9
20260904233852 67 308 0.0 0.0 0.00 0.29 0.29 87 1013.0
20260904233348 68 275 0.0 0.0 0.00 0.29 0.29 87 1012.8
20260904232844 68 264 0.0 0.0 0.00 0.29 0.29 86 1012.8
20260904232341 69 257 0.0 0.0 0.00 0.29 0.29 84 1012.8
20260904231836 70 275 0.0 0.0 0.00 0.29 0.29 83 1012.6
20260904231331 71 271 0.0 0.0 0.00 0.29 0.29 78 1013.1
20260904230826 71 280 0.0 1.0 0.00 0.29 0.29 75 1012.8
20260904230325 72 287 0.0 1.0 0.00 0.29 0.29 73 1012.6
20260904225820 72 285 0.0 1.0 0.00 0.29 0.29 72 1012.9
20260904225318 72 311 1.0 1.0 0.00 0.29 0.29 71 1012.8
20260904224817 73 0 1.0 1.0 0.00 0.29 0.29 70 1012.8
20260904224313 73 341 0.0 0.0 0.00 0.29 0.29 70 1012.5
20260904223813 74 287 2.0 2.0 0.00 0.29 0.29 68 1012.9
20260904223312 74 7 4.0 5.0 0.00 0.29 0.29 66 1012.8
20260904222809 74 356 4.0 6.0 0.00 0.29 0.29 66 1012.6
20260904222306 75 285 5.0 7.0 0.00 0.29 0.29 65 1012.6
20260904221758 75 309 2.0 2.0 0.00 0.29 0.29 67 1012.4
20260904221253 75 347 3.0 5.0 0.00 0.29 0.29 66 1012.4
20260904220748 75 325 4.0 5.0 0.00 0.29 0.29 65 1012.4
20260904220247 75 305 3.0 6.0 0.00 0.29 0.29 65 1012.5
20260904215743 75 343 3.0 5.0 0.00 0.29 0.29 65 1012.4
20260904215238 75 265 2.0 2.0 0.00 0.29 0.29 66 1012.5
20260904214733 76 300 5.0 5.0 0.00 0.29 0.29 65 1012.3
20260904214224 76 286 5.0 8.0 0.00 0.29 0.29 65 1012.2
20260904213721 77 345 6.0 10.0 0.00 0.29 0.29 63 1012.2
20260904213213 77 321 7.0 7.0 0.00 0.29 0.29 63 1012.2
20260904212712 77 320 7.0 8.0 0.00 0.29 0.29 63 1012.1
20260904212208 77 346 2.0 2.0 0.00 0.29 0.29 63 1012.2
20260904211707 77 310 5.0 7.0 0.00 0.29 0.29 64 1012.4
20260904211202 77 351 7.0 8.0 0.00 0.29 0.29 64 1012.3
20260904210657 77 41 1.0 1.0 0.00 0.29 0.29 66 1012.1
20260904210152 76 262 3.0 5.0 0.00 0.29 0.29 64 1012.6
20260904205648 76 332 7.0 7.0 0.00 0.29 0.29 66 1012.4
20260904205144 76 311 3.0 5.0 0.00 0.29 0.29 67 1012.4
20260904204640 76 13 6.0 8.0 0.00 0.29 0.29 67 1012.5
20260904204136 75 26 2.0 2.0 0.00 0.29 0.29 69 1012.6
20260904203632 75 344 3.0 3.0 0.00 0.29 0.29 69 1012.9
20260904203128 75 347 6.0 7.0 0.00 0.29 0.29 67 1013.0
20260904202624 76 345 3.0 3.0 0.00 0.29 0.29 66 1012.8
20260904202120 77 11 6.0 9.0 0.00 0.29 0.29 65 1012.6
20260904201614 77 349 6.0 7.0 0.00 0.29 0.29 63 1012.9
20260904201109 77 333 5.0 6.0 0.00 0.29 0.29 65 1012.9
20260904200608 77 292 1.0 2.0 0.00 0.29 0.29 66 1012.8
20260904200103 77 278 2.0 2.0 0.00 0.29 0.29 65 1012.9
20260904195602 78 343 10.0 11.0 0.00 0.29 0.29 61 1013.2
20260904195056 77 287 3.0 5.0 0.00 0.29 0.29 63 1013.1
20260904194555 77 275 1.0 1.0 0.00 0.29 0.29 63 1013.1
20260904194050 77 279 5.0 6.0 0.00 0.29 0.29 63 1013.2
20260904193546 77 276 4.0 5.0 0.00 0.29 0.29 63 1013.2
20260904193043 76 266 1.0 2.0 0.00 0.29 0.29 65 1013.3
20260904192542 77 2 7.0 9.0 0.00 0.29 0.29 64 1013.2
20260904192038 77 344 5.0 6.0 0.00 0.29 0.29 61 1013.2
20260904191534 78 288 5.0 6.0 0.00 0.29 0.29 61 1013.1
20260904191031 78 334 5.0 6.0 0.00 0.29 0.29 61 1013.4
20260904190526 77 316 6.0 7.0 0.00 0.29 0.29 63 1013.0
20260904190022 77 327 6.0 10.0 0.00 0.29 0.29 62 1013.3
20260904185518 78 324 10.0 11.0 0.00 0.29 0.29 60 1013.3
20260904185013 77 266 2.0 2.0 0.00 0.29 0.29 62 1013.1
20260904184512 78 277 3.0 6.0 0.00 0.29 0.29 61 1013.2
20260904184007 78 288 7.0 11.0 0.00 0.29 0.29 60 1013.3
20260904183502 77 247 4.0 5.0 0.00 0.29 0.29 62 1013.5
20260904182958 77 279 3.0 3.0 0.00 0.29 0.29 62 1013.4
20260904182453 77 269 7.0 8.0 0.00 0.29 0.29 61 1013.4
20260904181953 77 315 5.0 6.0 0.00 0.29 0.29 61 1013.6
20260904181448 77 280 6.0 7.0 0.00 0.29 0.29 62 1013.5
20260904180943 76 335 4.0 6.0 0.00 0.29 0.29 63 1013.7
20260904180438 76 348 2.0 2.0 0.00 0.29 0.29 64 1013.8
20260904175938 77 296 5.0 7.0 0.00 0.29 0.29 61 1013.7
20260904175437 76 320 3.0 5.0 0.00 0.29 0.29 62 1013.9
20260904174932 76 248 5.0 5.0 0.00 0.29 0.29 62 1014.0
20260904174427 75 325 8.0 10.0 0.00 0.29 0.29 63 1014.0
20260904173923 76 337 9.0 10.0 0.00 0.29 0.29 61 1014.2
20260904173418 78 330 5.0 6.0 0.00 0.29 0.29 60 1014.1
20260904172914 77 254 6.0 8.0 0.00 0.29 0.29 62 1013.9
20260904172414 77 298 9.0 11.0 0.00 0.29 0.29 60 1014.0
20260904171909 76 260 1.0 2.0 0.00 0.29 0.29 64 1013.9
20260904171404 75 328 8.0 9.0 0.00 0.29 0.29 62 1013.9
20260904170901 75 343 7.0 9.0 0.00 0.29 0.29 64 1014.4
20260904170355 76 2 5.0 6.0 0.00 0.29 0.29 63 1014.0
20260904165850 75 275 5.0 7.0 0.00 0.29 0.29 65 1014.0
20260904165344 77 267 8.0 11.0 0.00 0.29 0.29 60 1014.1
20260904164838 77 303 6.0 7.0 0.00 0.29 0.29 63 1014.0
20260904164333 76 303 2.0 2.0 0.00 0.29 0.29 68 1014.2
20260904163830 75 280 3.0 3.0 0.00 0.29 0.29 67 1014.0
20260904163329 75 269 7.0 8.0 0.00 0.29 0.29 69 1013.9
20260904162828 75 291 2.0 2.0 0.00 0.29 0.29 67 1014.0
20260904162324 75 72 1.0 1.0 0.00 0.29 0.29 70 1014.2
20260904161820 74 246 3.0 3.0 0.00 0.29 0.29 70 1014.3
20260904161319 74 273 1.0 1.0 0.00 0.29 0.29 71 1014.2
20260904160815 74 218 2.0 2.0 0.00 0.29 0.29 68 1014.0
20260904160310 74 266 1.0 2.0 0.00 0.29 0.29 71 1014.1
20260904155810 74 234 3.0 3.0 0.00 0.29 0.29 71 1014.1
20260904155307 75 298 3.0 3.0 0.00 0.29 0.29 70 1014.4
20260904154803 74 253 0.0 1.0 0.00 0.29 0.29 71 1014.1
20260904154258 73 340 4.0 6.0 0.00 0.29 0.29 71 1014.2
20260904153753 73 334 7.0 9.0 0.00 0.29 0.29 71 1014.2
20260904153249 73 273 2.0 3.0 0.00 0.29 0.29 72 1014.2
20260904152745 73 216 3.0 3.0 0.00 0.29 0.29 73 1014.7
20260904152240 73 5 3.0 3.0 0.00 0.29 0.29 72 1014.6
20260904151735 72 315 3.0 3.0 0.00 0.29 0.29 74 1014.6
20260904151234 73 323 3.0 3.0 0.00 0.29 0.29 74 1014.4
20260904150730 73 220 2.0 3.0 0.00 0.29 0.29 77 1014.5
20260904150225 72 338 4.0 5.0 0.00 0.29 0.29 77 1014.4
20260904145723 72 332 2.0 2.0 0.00 0.29 0.29 78 1014.4
20260904145219 71 334 2.0 2.0 0.00 0.29 0.29 78 1014.5
20260904144714 71 288 1.0 2.0 0.00 0.29 0.29 80 1014.7
20260904144210 72 356 4.0 5.0 0.00 0.29 0.29 77 1014.5
20260904143705 72 6 7.0 8.0 0.00 0.29 0.29 78 1014.3
20260904143202 71 35 3.0 5.0 0.00 0.29 0.29 79 1014.6
20260904142658 71 308 1.0 2.0 0.00 0.29 0.29 81 1014.8
20260904142153 71 296 3.0 5.0 0.00 0.29 0.29 80 1014.5
20260904141648 71 23 3.0 3.0 0.00 0.29 0.29 79 1014.7
20260904141143 71 14 3.0 3.0 0.00 0.29 0.29 80 1014.6
20260904140639 70 1 3.0 3.0 0.00 0.29 0.29 81 1014.8
20260904140134 70 344 7.0 9.0 0.00 0.29 0.29 80 1014.8
20260904135632 70 357 2.0 2.0 0.00 0.29 0.29 81 1014.4
20260904135123 70 6 4.0 6.0 0.00 0.29 0.29 81 1014.6
20260904134619 71 286 2.0 2.0 0.00 0.29 0.29 81 1014.7
20260904134118 71 316 3.0 3.0 0.00 0.29 0.29 83 1014.6
20260904133613 70 339 3.0 3.0 0.00 0.29 0.29 85 1014.5
20260904133109 69 358 2.0 2.0 0.00 0.29 0.29 86 1014.4
20260904132608 69 294 3.0 3.0 0.00 0.29 0.29 85 1014.3
20260904132103 70 303 1.0 1.0 0.00 0.29 0.29 85 1014.6
20260904131602 69 352 2.0 2.0 0.00 0.29 0.29 86 1014.5
20260904131058 69 355 2.0 3.0 0.00 0.29 0.29 86 1014.6
20260904130557 69 300 3.0 3.0 0.00 0.29 0.29 88 1014.5
20260904130052 68 284 0.0 0.0 0.00 0.29 0.29 90 1014.6
20260904125550 68 42 2.0 2.0 0.00 0.29 0.29 92 1014.4
20260904125049 68 294 1.0 1.0 0.00 0.29 0.29 94 1014.5
20260904124545 68 316 1.0 1.0 0.00 0.29 0.29 95 1014.4
20260904124040 67 86 2.0 2.0 0.00 0.29 0.29 96 1014.4
20260904123535 67 235 1.0 1.0 0.00 0.29 0.29 97 1014.4
20260904123031 68 209 3.0 3.0 0.00 0.29 0.29 99 1014.4
20260904122531 67 163 2.0 2.0 0.00 0.29 0.29 99 1014.3
20260904122026 67 186 2.0 2.0 0.00 0.29 0.29 99 1014.3
20260904121521 66 171 2.0 2.0 0.00 0.29 0.29 99 1014.4
20260904121017 66 196 2.0 2.0 0.00 0.29 0.29 99 1014.2
20260904120512 66 167 2.0 2.0 0.00 0.29 0.29 99 1014.3
20260904120003 65 214 1.0 1.0 0.00 0.29 0.29 99 1014.4
20260904115458 65 137 3.0 3.0 0.00 0.29 0.29 99 1014.4
20260904114957 66 116 1.0 1.0 0.00 0.29 0.29 99 1014.2
20260904114452 66 278 0.0 0.0 0.00 0.29 0.29 99 1014.4
20260904113947 65 253 0.0 0.0 0.00 0.29 0.29 99 1014.1
20260904113446 65 258 0.0 0.0 0.00 0.29 0.29 99 1014.1
20260904112945 65 271 0.0 0.0 0.00 0.29 0.29 99 1014.3
20260904112442 65 264 0.0 0.0 0.00 0.29 0.29 99 1014.3
20260904111937 65 270 0.0 0.0 0.00 0.29 0.29 99 1014.2
20260904111433 65 258 0.0 0.0 0.00 0.29 0.29 99 1014.0
20260904110928 65 341 1.0 1.0 0.00 0.29 0.29 99 1014.1
20260904110427 65 304 1.0 1.0 0.00 0.29 0.29 99 1013.9
20260904105923 65 17 1.0 2.0 0.00 0.29 0.29 99 1014.0
20260904105418 65 264 0.0 0.0 0.00 0.29 0.29 99 1014.1
20260904104913 65 238 1.0 1.0 0.00 0.29 0.29 99 1014.1
20260904104407 66 250 0.0 0.0 0.00 0.29 0.29 99 1013.9
20260904103905 66 262 0.0 0.0 0.00 0.29 0.29 99 1013.9
20260904103405 66 280 0.0 0.0 0.00 0.29 0.29 99 1013.8
20260904102901 66 331 0.0 1.0 0.00 0.29 0.29 99 1013.7
20260904102355 66 293 0.0 0.0 0.00 0.29 0.29 99 1013.8
20260904101851 66 309 0.0 0.0 0.00 0.29 0.29 99 1013.6
20260904101348 66 263 0.0 0.0 0.00 0.29 0.29 99 1013.6
20260904100843 66 250 0.0 0.0 0.00 0.29 0.29 99 1013.7
20260904100339 66 230 1.0 1.0 0.00 0.29 0.29 99 1013.6
20260904095833 66 260 1.0 1.0 0.00 0.29 0.29 99 1013.5
20260904095328 66 242 1.0 1.0 0.00 0.29 0.29 99 1013.5
20260904094823 66 278 0.0 0.0 0.00 0.29 0.29 99 1013.5
20260904094318 66 269 0.0 0.0 0.00 0.29 0.29 99 1013.4
20260904093814 66 276 0.0 0.0 0.00 0.29 0.29 99 1013.3
20260904093309 66 275 0.0 0.0 0.00 0.29 0.29 99 1013.6
20260904092804 66 269 0.0 0.0 0.00 0.29 0.29 99 1013.4
20260904092301 66 257 0.0 0.0 0.00 0.29 0.29 99 1013.4
20260904091756 66 237 0.0 1.0 0.00 0.29 0.29 99 1013.3
20260904091251 66 266 0.0 0.0 0.00 0.29 0.29 99 1013.7
20260904090746 66 258 0.0 0.0 0.00 0.29 0.29 99 1013.4
20260904090237 66 200 1.0 2.0 0.00 0.29 0.29 99 1013.3
20260904085737 66 258 0.0 0.0 0.00 0.29 0.29 99 1013.5
20260904085232 66 283 1.0 1.0 0.00 0.29 0.29 99 1013.6
20260904084726 66 276 1.0 1.0 0.00 0.29 0.29 99 1013.4
20260904084222 66 272 1.0 1.0 0.00 0.29 0.29 99 1013.1
20260904083718 66 275 1.0 1.0 0.00 0.29 0.29 99 1013.2
20260904083215 66 270 0.0 0.0 0.00 0.29 0.29 99 1012.9
20260904082709 66 250 0.0 0.0 0.00 0.29 0.29 99 1013.1
20260904082204 66 273 0.0 0.0 0.00 0.29 0.29 99 1012.9
20260904081659 67 268 0.0 0.0 0.00 0.29 0.29 99 1012.9
20260904081155 67 215 1.0 1.0 0.00 0.29 0.29 99 1012.8
20260904080651 67 227 1.0 1.0 0.00 0.29 0.29 99 1012.9
20260904080146 67 233 1.0 1.0 0.00 0.29 0.29 99 1012.6
20260904075642 67 228 0.0 1.0 0.00 0.29 0.29 99 1012.6
20260904075137 68 249 0.0 0.0 0.00 0.29 0.29 99 1012.5
20260904074630 68 269 0.0 0.0 0.00 0.29 0.29 99 1012.8
20260904074125 68 262 1.0 1.0 0.00 0.29 0.29 99 1012.5
20260904073620 68 262 0.0 0.0 0.00 0.29 0.29 99 1012.5
20260904073116 68 258 1.0 1.0 0.00 0.29 0.29 99 1012.3
20260904072611 68 271 0.0 0.0 0.00 0.29 0.29 99 1012.3
20260904072107 68 254 0.0 0.0 0.00 0.29 0.29 99 1012.3
20260904071603 68 219 1.0 1.0 0.00 0.29 0.29 99 1012.2
20260904071057 68 252 0.0 0.0 0.00 0.29 0.29 99 1012.3
20260904070556 68 257 0.0 0.0 0.00 0.29 0.29 99 1012.5
20260904070051 69 265 0.0 0.0 0.00 0.29 0.29 99 1012.3
20260904065546 69 278 0.0 1.0 0.00 0.29 0.29 99 1012.4
20260904065043 69 283 1.0 1.0 0.00 0.29 0.29 99 1012.3
20260904064538 69 246 0.0 1.0 0.00 0.29 0.29 99 1012.4
20260904064033 69 279 0.0 0.0 0.00 0.29 0.29 99 1012.3
20260904063529 69 252 1.0 1.0 0.00 0.29 0.29 99 1012.4
20260904063024 69 243 1.0 1.0 0.00 0.29 0.29 99 1012.3
20260904062520 69 252 0.0 0.0 0.00 0.29 0.29 99 1012.2
20260904062015 69 269 0.0 0.0 0.00 0.29 0.29 99 1012.4
20260904061511 69 342 1.0 1.0 0.00 0.29 0.29 99 1012.3
20260904061008 69 344 1.0 1.0 0.00 0.29 0.29 99 1012.2
20260904060503 69 284 0.0 0.0 0.00 0.29 0.29 99 1012.6
20260904055959 69 274 0.0 0.0 0.00 0.29 0.29 98 1012.5
20260904055454 69 357 1.0 1.0 0.00 0.29 0.29 98 1012.8
20260904054949 69 67 1.0 1.0 0.00 0.29 0.29 98 1012.5
20260904054445 69 91 1.0 1.0 0.05 0.29 0.29 98 1012.6
20260904053941 69 230 1.0 1.0 0.05 0.29 0.29 98 1013.0
20260904053440 69 244 0.0 1.0 0.00 0.28 0.28 98 1013.0
20260904052936 69 309 0.0 1.0 0.00 0.28 0.28 98 1013.0
20260904052432 69 276 0.0 0.0 0.00 0.28 0.28 98 1012.9
20260904051928 69 309 1.0 1.0 0.00 0.28 0.28 98 1013.2
20260904051424 70 311 1.0 1.0 0.00 0.28 0.28 98 1012.8
20260904050923 70 86 0.0 1.0 0.00 0.28 0.28 98 1013.3
20260904050420 70 111 1.0 2.0 0.07 0.28 0.28 98 1013.1
20260904045920 70 98 3.0 3.0 0.19 0.28 0.28 98 1013.3
20260904045415 70 80 3.0 3.0 0.24 0.27 0.27 98 1013.2
20260904044915 70 37 1.0 1.0 0.35 0.25 0.25 98 1013.5
20260904044411 70 343 1.0 1.0 0.50 0.24 0.24 98 1013.4